OpenBCM V1.13 (Linux)

Packet Radio Mailbox

DB0FHN

[JN59NK Nuernberg]

 Login: GUEST





  
LU9DCE > KEP      26.07.19 20:04l 247 Lines 12213 Bytes #-2471 (0) @ WW
BID : 29012_LU9DCE
Read: DJ6UX DF7EAV GUEST
Subj: TLE 26 07
Path: DB0FHN<DB0BLO<DB0ERF<IZ3LSV<IR1UAW<IW2OHX<UA6ADV<I0OJJ<LU9DCE
Sent: 190726/1800Z @:LU9DCE.TOR.BA.ARG.SOAM #:29012 LinBPQ6.0.18

>From lu9dce%lu9dce.tor.ba.arg.soam@i0ojj.ampr.org Fri Jul 26 20:01:33 2019
Received: from i0ojj.ampr.org by i0ojj.ampr.org (JNOS2.0k.3b) with SMTP
	id AA23240 ; Fri, 26 Jul 2019 20:01:33 +0200
Message-Id: <29012_lu9dce@lu9dce.bbs>
>From: lu9dce@lu9dce.tor.ba.arg.soam
X-JNOS-User-Port: Circuit  (X-YORK:VE3CGR-8 LU9DCE)  -> Sending message

            __    _  _  ___  ____   ___  ____    ____  ____  ____
           (  )  / )( \/ _ \(    \ / __)(  __)  (  _ \(  _ \/ ___)
           / (_/\) \/ (\__  )) D (( (__  ) _)    ) _ ( ) _ (\___ \
           \____/\____/(___/(____/ \___)(____)  (____/(____/(____/
               ESTACION DE PACKET RADIO - BUENOS AIRES (GF05OM)
                   BOLETINES INFORMATIVOS PROGRAMADOS (BIP)
                  SLACKWARE LINUX - HELLOCODELINUX@GMAIL.COM

+----------------------------------------------------------------------------+
OSCAR 7
1  7530U 74089B   19206.89181583 -.00000023 +00000-0 +13795-3 0  9998
2  7530 101.7462 174.1754 0011729 276.3321 138.8361 12.53639089044948
OSCAR 11 (UoSAT 2)
1 14781U 84021B   19206.67269836  .00000011  00000-0  75134-5 0  9998
2 14781  97.6090 229.6387 0008168 187.9580 172.1506 14.83096893904244
OSCAR 19 (LUSAT)
1 20442U 90005G   19206.81714172 -.00000016 +00000-0 +10478-4 0  9997
2 20442 098.6497 148.7581 0012633 044.1337 316.0853 14.32929407541634
EYESAT A
1 22825U 93061C   19206.86207943 -.00000009 +00000-0 +14434-4 0  9995
2 22825 098.9047 196.3503 0007344 248.3518 111.6882 14.30062907346994
ITAMSAT
1 22826U 93061D   19207.13489085  .00000001  00000-0  18443-4 0  9991
2 22826  98.8988 196.6161 0007964 234.8909 125.1527 14.30396723347503
RADIO ROSTO
1 23439U 94085A   19206.85478004 -.00000044 +00000-0 -49303-4 0  9994
2 23439 064.8176 056.0278 0146169 105.9683 255.7398 11.27568498012083
JAS 2
1 24278U 96046B   19207.41014335  .00000013  00000-0  46182-4 0  9997
2 24278  98.5424 355.7103 0351052 142.0907 220.5516 13.53092861132904
TECHSAT 1B
1 25397U 98043D   19207.43062106 -.00000028  00000-0  69880-5 0  9998
2 25397  98.6897 147.1204 0000459 352.8369   7.2803 14.23668097 93242
ISS (ZARYA)
1 25544U 98067A   19207.43177535  .00000423  00000-0  14996-4 0  9996
2 25544  51.6436 166.5622 0006540 180.6221 322.9860 15.51002664181347
PCSAT
1 26931U 01043C   19206.69504224 -.00000062 +00000-0 +78511-5 0  9995
2 26931 067.0507 268.1945 0007238 276.2337 083.7939 14.30547630930197
SAUDISAT 1C
1 27607U 02058C   19206.55163423 -.00000058  00000-0  12839-4 0  9995
2 27607  64.5556 296.9021 0080045 249.4314 109.8188 14.75560368892478
CUTE-1
1 27844U 03031E   19206.79993756 +.00000028 +00000-0 +32378-4 0  9992
2 27844 098.6835 214.4578 0008614 286.2206 073.8023 14.22186560833521
CUBESAT XI 4
1 27848U 03031J   19206.59152362  .00000019  00000-0  28479-4 0  9991
2 27848  98.6912 214.7606 0008645 299.9826  60.0493 14.21780800833388
MOZHAYETS 4
1 27939U 03042A   19207.02169372 -.00000038  00000-0  17805-5 0  9996
2 27939  98.0460 342.1198 0012024 313.2355  46.7828 14.66791373846019
CUBESAT XI 5
1 28895U 05043F   19207.17594553  .00000086  00000-0  25336-4 0  9999
2 28895  97.9641 348.6325 0015754 230.1128 129.8690 14.63677363732968
CUTE-1.7+APD II
1 32785U 08021C   19207.53691517  .00000129  00000-0  19464-4 0  9992
2 32785  97.5501 205.4676 0014206 132.6476 227.5941 14.88323837609312
DELFI C3
1 32789U 08021G   19206.73544544 +.00000769 +00000-0 +55299-4 0  9990
2 32789 097.4620 255.2786 0012134 007.3680 352.7724 15.07015989612441
SEEDS
1 32791U 08021J   19206.75337077 +.00000267 +00000-0 +32447-4 0  9999
2 32791 097.5279 210.7318 0014889 111.8962 248.3842 14.90839298609552
YUBELEINY
1 32953U 08025A   19207.06961874  .00000021  00000-0  75656-4 0  9993
2 32953  82.5028 121.5242 0020353  48.6218 311.6613 12.43090704506954
PRISM (HITOMI)
1 33493U 09002B   19207.36923915 -.00000127  00000-0 -55232-5 0  9994
2 33493  98.1209 129.7536 0016360  60.1118 300.1725 14.96681625570782
KKS-1 (KISEKI)
1 33499U 09002H   19206.83836353  .00000069  00000-0  18228-4 0  9996
2 33499  98.3486  46.7263 0010519  88.5108 271.7305 14.75450216564704
SWISSCUBE
1 35932U 09051B   19207.11139189  .00000096  00000-0  32770-4 0  9997
2 35932  98.5914  14.1857 0008618  56.7835 303.4186 14.56294827522229
BEESAT
1 35933U 09051C   19207.45560586  .00000079  00000-0  28856-4 0  9995
2 35933  98.5938  16.3152 0006966  68.3335 291.8603 14.56382832522381
ITUPSAT 1
1 35935U 09051E   19206.71015272  .00000051  00000-0  22884-4 0  9997
2 35935  98.6049  15.7829 0009255  66.6357 293.5812 14.55541211522029
XIWANG-1 (HOPE-1)
1 36122U 09072B   19206.74999835 -.00000037 +00000-0 +13367-4 0  9999
2 36122 100.0725 207.3858 0006918 259.8540 100.1794 13.16350202461759
TISAT 1
1 36799U 10035E   19207.39526688  .00000142  00000-0  20466-4 0  9998
2 36799  98.1602   0.8073 0011420 327.9007  32.1514 14.91122773490383
JUGNU
1 37839U 11058B   19206.12846633  .00000286  00000-0  10956-4 0  9997
2 37839  19.9614 113.8180 0018866   9.0926 134.1970 14.12654513402417
SRMSAT
1 37841U 11058D   19206.30245427  .00000281  00000-0  93343-5 0  9991
2 37841  19.9709 170.2961 0011712 238.2306 274.3000 14.10635404401876
M-CUBED/EXP-1 PRIME
1 37855U 11061F   19206.68491562 +.00000730 +00000-0 +44582-4 0  9993
2 37855 101.7113 121.2698 0173383 327.2379 031.8174 15.05497414421877
HORYU 2
1 38340U 12025D   19206.73209816  .00000090  00000-0  21160-4 0  9995
2 38340  98.3265 246.4295 0011678  13.2454 346.9058 14.75730978386628
STRAND 1
1 39090U 13009E   19207.50584128 -.00000001  00000-0  14906-4 0  9992
2 39090  98.4857  52.8240 0009260 169.0521 191.0868 14.35090999335818
SOMP
1 39134U 13015E   19207.12118362  .00000524  00000-0  33296-4 0  9991
2 39134  64.8624 259.1699 0033144 296.8668  62.9072 15.20211473346288
BEESAT 3
1 39135U 13015F   19206.58254771 +.00000329 +00000-0 +26216-4 0  9993
2 39135 064.8696 279.7325 0026308 314.0733 045.8227 15.17514162345459
BEESAT 2
1 39136U 13015G   19206.83124018 +.00000165 +00000-0 +18363-4 0  9994
2 39136 064.8702 282.8623 0021023 299.7241 060.1792 15.16940943345418
CUBEBUG 1
1 39153U 13018D   19207.27153873  .00000070  00000-0  16088-4 0  9993
2 39153  97.9798 305.1877 0018365  78.2827 282.0445 14.80577114337387
ZACUBE
1 39417U 13066B   19206.86174613 +.00000115 +00000-0 +20981-4 0  9995
2 39417 097.5618 218.2741 0057322 272.2511 087.2140 14.81127681306545
TRITON 1
1 39427U 13066M   19206.87996598  .00000170  00000-0  34808-4 0  9995
2 39427  97.6786 181.9639 0115037  46.9443 314.1325 14.67854701303798
GOMX 1
1 39430U 13066Q   19207.54172344  .00000089  00000-0  24741-4 0  9993
2 39430  97.7495 161.6077 0151973 134.5196 226.8530 14.59263262302129
HUMSAT D
1 39433U 13066T   19207.09852700  .00000155  00000-0  20412-4 0  9992
2 39433  97.5509 253.0713 0031026 172.9790 187.1871 14.92212902308654
CUBEBUG 2
1 39440U 13066AA  19206.56558137  .00000110  00000-0  22463-4 0  9997
2 39440  97.6029 202.8266 0079383 326.1973  33.4191 14.75865740305413
FUNCUBE 1
1 39444U 13066AE  19207.04434234  .00000142  00000-0  23917-4 0  9996
2 39444  97.5598 220.4285 0056435 265.1688  94.3081 14.81948814305462
UWE-3
1 39446U 13066AG  19207.52177274  .00000110  00000-0  21527-4 0  9999
2 39446  97.5813 210.7911 0068590 297.2715  62.1522 14.78400492304850
SPROUT
1 39770U 14029E   19207.30537405  .00000244  00000-0  33070-4 0  9995
2 39770  97.8856 310.3569 0008754 330.0966  29.9749 14.87368410280427
UNISAT 6
1 40012U 14033C   19207.55526483  .00000100  00000-0  22450-4 0  9993
2 40012  97.7532  72.5266 0057835 337.1924  22.6717 14.73988468274261
DUCHIFAT 1
1 40021U 14033M   19206.73219466  .00000289  00000-0  35329-4 0  9999
2 40021  97.9232 131.4487 0011526 291.5647  68.4342 14.90647255277060
QB50P1
1 40025U 14033R   19207.19930250  .00000160  00000-0  23070-4 0  9993
2 40025  97.9048 126.8228 0011203 300.2405  59.7702 14.88956973276904
CHUBUSAT 1
1 40300U 14070C   19207.45660046  .00000285  00000-0  15440-4 0  9992
2 40300  97.3251 280.6826 0018701 285.9671 137.6380 15.22113430261765
NUDT-PHONESAT
1 40900U 15049B   19207.56230367  .00001232  00000-0  55485-4 0  9992
2 40900  97.4366 216.5243 0014395  56.3773  60.1408 15.22871676213422
ZDPS 2A
1 40901U 15049C   19206.92169856  .00000485  00000-0  27331-4 0  9994
2 40901  97.4600 212.2061 0015117  75.0121 347.8152 15.17758584212889
ZDPS 2B
1 40902U 15049D   19207.55706955  .00000658  00000-0  36033-4 0  9993
2 40902  97.4540 210.3066 0015211  70.2221  59.4523 15.17586868212950
XW-2A
1 40903U 15049E   19207.48728686  .00001084  00000-0  27437-4 0  9993
2 40903  97.3341 250.4597 0014068  15.5732  91.7541 15.41936749216071
KAITUO 1A
1 40904U 15049F   19207.23303475  .00000009  00000-0  39809-5 0  9995
2 40904  97.4671 208.5976 0016270  78.4024 337.9067 15.15379547212682
OBJECT G
1 40905U 15049G   19206.87510757  .00000048  00000-0  62083-5 0  9991
2 40905  97.4711 205.7609 0017269  75.0582 328.7870 15.14305453212506
XW-2C
1 40906U 15049H   19207.56774529  .00000128  00000-0  10191-4 0  9999
2 40906  97.4676 209.0180 0016530  69.3293  48.7416 15.15696401212730
XW-2D
1 40907U 15049J   19207.54037610  .00000569  00000-0  33111-4 0  9997
2 40907  97.4653 208.6685 0015813  67.8085  48.7264 15.15889373212740
LILACSAT 2
1 40908U 15049K   19207.54023388  .00000480  00000-0  30115-4 0  9998
2 40908  97.4791 207.4758 0017512  73.0025  44.0400 15.13817890212534
XW-2F
1 40910U 15049M   19206.99318271  .00000696  00000-0  38183-4 0  9999
2 40910  97.4625 210.1709 0016326  63.2957 349.1075 15.17333448212675
XW-2B
1 40911U 15049N   19206.97465957  .00000191  00000-0  13423-4 0  9992
2 40911  97.4681 208.7675 0015684  70.0310  13.7507 15.15816214212554
